Miscellaneous Local Product
Issued by NWS Hastings, NE

Home | Current Version | Previous Version | Text Only | Print | Product List | Glossary Off
Versions: 1 2 3 4 5 6 7 8 9 10 11 12 13 14 15 16 17 18 19 20 21 22 23 24 25 26 27 28 29 30 31 32 33 34 35 36 37 38 39 40 41 42 43 44 45 46 47 48 49 50

000
AXUS43 KGID 272202
MISGRI

GID CWA HOURLY WEATHER ROUNDUP
NATIONAL WEATHER SERVICE HASTINGS NE
400 PM CST TUE JAN 27 2015

NOTE: "FAIR" INDICATES FEW OR NO CLOUDS BELOW 12,000 FEET WITH NO
SIGNIFICANT WEATHER AND/OR OBSTRUCTIONS TO VISIBILITY.

...SOUTH CENTRAL NEBRASKA...

CITY           SKY/WX    TMP DP  RH WIND       PRES   REMARKS
GRAND ISLAND   SUNNY     62  33  33 SE10      29.96F
HASTINGS       SUNNY     65  30  27 S10       29.95S
KEARNEY        SUNNY     66  34  30 S5        29.94F
ORD            SUNNY     61  33  35 SE8       29.92F
YORK           SUNNY     59  36  41 S12       29.97F
AURORA         SUNNY     62  32  32 S13       29.96S
LEXINGTON      SUNNY     72  32  23 CALM      29.93F
HOLDREGE       SUNNY     67  30  25 SW3       29.94F
HEBRON         SUNNY     63  31  30 SE14      29.97F

...NEBRASKA PANHANDLE...

CITY           SKY/WX    TMP DP  RH WIND       PRES   REMARKS
CHADRON        SUNNY     69  31  24 N3        29.93F
ALLIANCE       SUNNY     70  29  21 SW8       29.96F
SCOTTSBLUFF      N/A    N/A N/A N/A MISG      29.97F
SIDNEY         SUNNY     72  25  17 W3        30.01F

...WESTERN AND NORTH CENTRAL NEBRASKA...

CITY           SKY/WX    TMP DP  RH WIND       PRES   REMARKS
VALENTINE      SUNNY     71  32  23 W6        29.89F
AINSWORTH      SUNNY     69  31  24 SW5       29.90S
ONEILL         SUNNY     61  36  39 SE12      29.91F
BROKEN BOW     SUNNY     71  36  27 SE7       29.92F
IMPERIAL       SUNNY     76  23  14 NW5       29.97F
NORTH PLATTE   SUNNY     74  28  18 W9        29.94S
MCCOOK         SUNNY     75  30  19 W3        29.95F

...EASTERN NEBRASKA...

CITY           SKY/WX    TMP DP  RH WIND       PRES   REMARKS
NORFOLK        SUNNY     56  35  45 SE13      29.97S
SO SIOUX CITY  SUNNY     49  36  61 SE13      30.03F
TEKAMAH        SUNNY     53  35  50 SE12      30.03F
COLUMBUS       SUNNY     57  34  41 SE14      30.00S
ALBION         SUNNY     58  34  40 S14       29.96S
OMAHA EPPLEY   MOSUNNY   53  32  44 SE14      30.04F
OFFUTT AFB     SUNNY     54  31  42 SE14      30.03F
MILLARD        SUNNY     54  33  45 SE10      30.03F
LINCOLN        SUNNY     59  32  36 SE10      30.01F
NEBRASKA CITY  SUNNY     53  26  34 SE10      30.04S
BEATRICE       SUNNY     60  33  35 S15       29.99F
FALLS CITY     SUNNY     56  31  38 SE9       30.05S

...NORTHERN KANSAS...

CITY           SKY/WX    TMP DP  RH WIND       PRES   REMARKS
GOODLAND       SUNNY     76  21  12 SW13      30.00F
HILL CITY      SUNNY     83  30  14 NE5       29.93F
NORTON         CLEAR     73  21  14 W5        29.94
PHILLIPSBURG   SUNNY     75  32  20 SE3       29.94F
SMITH CENTER   SUNNY     68  32  26 S5        29.96S
BELOIT         SUNNY     72  32  23 S7        29.94F
HAYS           SUNNY     82  25  12 W16       29.95S
RUSSELL        SUNNY     82  30  15 SW9       29.92F
CONCORDIA      SUNNY     69  35  28 S13       29.96F
SALINA         SUNNY     75  37  25 S12       29.96F
TOPEKA         SUNNY     60  32  34 SE13      30.05F



USA.gov is the U.S. government's official web portal to all federal, state and local government web resources and services.